Hondo, TX

3:12 PM CDT on September 19, 2017 (GMT -0500)
Hondo Municipal

Weather History for KHDO - January, 2013

Change the Weather History Date:

Tuesday, January 15, 2013

  Actual Average Record
Temperature  
Mean Temperature 41 °F -  
Max Temperature 48 °F 62 °F 81 °F (2017)
Min Temperature 34 °F 37 °F 26 °F (1999)
Degree Days  
Heating Degree Days 24    
Moisture  
Dew Point 30 °F    
Average Humidity 64    
Maximum Humidity 79    
Minimum Humidity 50    
Precipitation  
Precipitation 0.00 in - - ()
Sea Level Pressure  
Sea Level Pressure 30.15 in    
Wind  
Wind Speed 10 mph (NNE)    
Max Wind Speed 18 mph    
Max Gust Speed 26 mph    
Visibility 10 miles    
Events      
Averages and records for this station are not official NWS values.
T = Trace of Precipitation, MM = Missing Value Source: NWS Daily Summary

Daily Weather History Graph

Daily Weather History Graph

Search for Another Location

Airport or City:

Trip Planner

Search our weather history database for the weather conditions in past years. The results will help you decide how hot, cold, wet, or windy it might be!

Date:

Astronomy

Jan. 15, 2013 Rise Set
Actual Time 7:31 AM CST 6:00 PM CST
Civil Twilight 7:06 AM CST 6:26 PM CST
Nautical Twilight 6:37 AM CST 6:55 PM CST
Astronomical Twilight 6:08 AM CST 7:24 PM CST
Moon 10:02 AM CST (1/15) 10:25 PM CST (1/15)
Length of Visible Light 11h 20m
Length of Day
10h 28m
Waxing Crescent, 19% of the Moon is Illuminated
Jan 15
Waxing Crescent
Jan 18
First Quarter
Jan 26
Full
Feb 3
Last Quarter
Feb 10
New

Hourly Weather History & Observations

Time (CST) Temp. Windchill Dew Point Humidity Pressure Visibility Wind Dir Wind Speed Gust Speed Precip Events Conditions
12:28 AM 42.8 °F 38.6 °F 30.2 °F 61% 30.12 in 10.0 mi ENE 6.9 mph - N/A   Overcast
12:51 AM 43.0 °F 38.2 °F 30.9 °F 62% 30.12 in 10.0 mi ENE 8.1 mph - N/A   Overcast
1:49 AM 42.8 °F 38.6 °F 33.8 °F 70% 30.13 in 10.0 mi ENE 6.9 mph - N/A   Overcast
1:51 AM 42.1 °F 37.1 °F 33.1 °F 70% 30.11 in 10.0 mi East 8.1 mph - N/A   Overcast
2:32 AM 41.0 °F 35.8 °F 33.8 °F 76% 30.12 in 10.0 mi ENE 8.1 mph - N/A   Overcast
2:51 AM 41.0 °F 33.9 °F 33.8 °F 76% 30.11 in 10.0 mi ENE 12.7 mph - N/A   Overcast
3:51 AM 39.9 °F 33.4 °F 34.0 °F 79% 30.10 in 10.0 mi NNE 10.4 mph - N/A   Overcast
4:51 AM 39.9 °F 32.9 °F 32.0 °F 73% 30.10 in 10.0 mi North 11.5 mph - N/A   Overcast
5:51 AM 39.9 °F 33.4 °F 32.0 °F 73% 30.10 in 10.0 mi NNE 10.4 mph - N/A   Overcast
6:51 AM 39.9 °F 34.5 °F 32.0 °F 73% 30.12 in 10.0 mi NNE 8.1 mph - N/A   Overcast
7:03 AM 39.2 °F 32.0 °F 30.2 °F 70% 30.12 in 10.0 mi NNE 11.5 mph - N/A   Mostly Cloudy
7:51 AM 39.0 °F 32.8 °F 30.9 °F 73% 30.14 in 10.0 mi North 9.2 mph - N/A   Clear
8:51 AM 41.0 °F 35.2 °F 30.0 °F 65% 30.14 in 10.0 mi NNE 9.2 mph - N/A   Clear
9:51 AM 42.1 °F 36.6 °F 30.0 °F 62% 30.16 in 10.0 mi NNE 9.2 mph - N/A   Clear
10:51 AM 44.1 °F 37.7 °F 30.9 °F 60% 30.16 in 10.0 mi North 12.7 mph - N/A   Clear
11:51 AM 46.0 °F 40.2 °F 32.0 °F 58% 30.15 in 10.0 mi North 12.7 mph - N/A   Mostly Cloudy
12:13 PM 46.4 °F 41.1 °F 32.0 °F 57% 30.15 in 10.0 mi North 11.5 mph - N/A   Mostly Cloudy
12:36 PM 46.4 °F 40.4 °F 32.0 °F 57% 30.13 in 10.0 mi North 13.8 mph - N/A   Mostly Cloudy
12:51 PM 46.4 °F 39.2 °F 32.0 °F 57% 30.12 in 10.0 mi North 18.4 mph - N/A   Mostly Cloudy
1:51 PM 48.0 °F - 30.9 °F 52% 30.11 in 10.0 mi North 15.0 mph 23.0 mph N/A   Overcast
2:51 PM 48.2 °F - 30.2 °F 50% 30.12 in 10.0 mi North 16.1 mph - N/A   Mostly Cloudy
3:51 PM 46.0 °F 38.8 °F 30.9 °F 56% 30.13 in 10.0 mi North 18.4 mph - N/A   Mostly Cloudy
4:51 PM 44.6 °F 37.4 °F 30.2 °F 57% 30.18 in 10.0 mi North 16.1 mph 26.5 mph N/A   Overcast
5:51 PM 43.0 °F 36.0 °F 30.0 °F 60% 30.18 in 10.0 mi NNE 13.8 mph - N/A   Overcast
6:51 PM 39.9 °F 31.4 °F 28.9 °F 65% 30.20 in 10.0 mi NNE 16.1 mph 19.6 mph N/A   Clear
7:51 PM 37.0 °F 31.6 °F 28.0 °F 70% 30.23 in 10.0 mi North 6.9 mph - N/A   Scattered Clouds
8:51 PM 37.0 °F 29.8 °F 27.0 °F 67% 30.24 in 10.0 mi NNW 10.4 mph - N/A   Clear
9:51 PM 37.0 °F 29.8 °F 24.1 °F 59% 30.26 in 10.0 mi North 10.4 mph - N/A   Clear
10:51 PM 34.0 °F 28.0 °F 21.9 °F 61% 30.27 in 10.0 mi North 6.9 mph - N/A   Clear
11:51 PM 35.1 °F 27.9 °F 19.0 °F 52% 30.28 in 10.0 mi North 9.2 mph - N/A   Clear